User: anonymous   Login
Location: Équennes
(49.7375°N, 1.9622°E)
Time: 05:06:16
(UTC+00:00)
Language:

Cosmos 1867 - Orbit

View from above orbital plane
View from above orbital plane
View from above satellite
View from above satellite

Ground track
Ground track

The orbit data is extracted from the following two-line orbital elements,

1 18187U 87060A   24105.39271569  .00000035  00000-0  50846-4 0  9995
2 18187  65.0091  90.7888 0020461 276.1854  83.6899 14.31284169920782
Epoch (UTC): 14 April 2024 09:25:30
Eccentricity: 0.0020461
inclination: 65.0091°
perigee height: 773 km
apogee height: 802 km
right ascension of ascending node: 90.7888°
argument of perigee: 276.1854°
revolutions per day: 14.31284169
mean anomaly at epoch: 83.6899°
orbit number at epoch: 92078

The dashed part of the orbit path shows where the satellite is in the earth's shadow,  

DLR